Regional Weather Roundup
Issued by NWS Wilmington, NC

Home | Current Version | Previous Version | Text Only | Print | Product List | Glossary On
Versions: 1 2 3 4 5 6 7 8 9 10 11 12 13 14 15 16 17 18 19 20 21 22 23 24 25 26 27 28 29 30 31 32 33 34 35 36 37 38 39 40 41 42 43 44 45 46 47 48 49 50
000
ASUS42 KILM 200810
RWRILM
RWRILM
REGIONAL HOURLY WEATHER ROUNDUP
NATIONAL WEATHER SERVICE WILMINGTON NC
400 AM EDT MON OCT 20 2014

NOTE: "FAIR" INDICATES FEW OR NO CLOUDS BELOW 12,000 FEET WITH NO
SIGNIFICANT WEATHER AND/OR OBSTRUCTIONS TO VISIBILITY.

...............WFO WILMINGTON COUNTY WARNING AREA...............

......COASTAL NC AND SC COUNTIES......

CITY           SKY/WX    TMP DP  RH WIND       PRES   REMARKS
WILMINGTON     CLEAR     45  43  93 CALM      30.14F
SOUTHPORT      CLEAR     49  43  80 NE3       30.14S
N MYRTLE BEACH CLEAR     47  44  90 CALM      30.14S
MYRTLE BEACH   CLEAR     52  45  76 N5        30.14S

......INLAND NC AND SC COUNTIES.......

CITY           SKY/WX    TMP DP  RH WIND       PRES   REMARKS
LUMBERTON      CLEAR     40  39  97 CALM      30.13F
ELIZABETHTOWN  CLEAR     45  43  91 CALM      30.14S
WHITEVILLE     CLEAR     44  43  94 CALM      30.13F
FLORENCE       CLEAR     47  43  86 CALM      30.13F
DARLINGTON     CLEAR     45  39  81 CALM      30.14S

....................REST OF NORTH CAROLINA......................

.........EASTERN NC.........

CITY           SKY/WX    TMP DP  RH WIND       PRES   REMARKS
CAPE HATTERAS  CLEAR     49  43  80 CALM      30.13S
JACKSONVILLE   CLEAR     39  36  87 CALM      30.15S
MOREHEAD CITY  CLEAR     46  44  93 CALM      30.14F
KENANSVILLE    CLEAR     39  39 100 CALM      30.15R
NEW BERN       MOCLDY    44  41  89 CALM      30.15F FOG
ELIZABETH CITY CLEAR     41  39  93 SW3       30.14S

.........CENTRAL NC.........

CITY           SKY/WX    TMP DP  RH WIND       PRES   REMARKS
RALEIGH DURHAM PTCLDY    42  39  89 CALM      30.13S
ROCKY MOUNT    CLEAR     40  39  97 CALM      30.13S FOG
ROANOKE RAPIDS NOT AVBL
FAYETTEVILLE   CLEAR     47  42  83 S3        30.13F
HOFFMAN        CLEAR     40  40  99 N2        30.15S

.........WESTERN NC.........

CITY           SKY/WX    TMP DP  RH WIND       PRES   REMARKS
CHARLOTTE      MOCLDY    49  42  77 CALM      30.12S
GREENSBORO     PTCLDY    46  41  82 CALM      30.10F
HICKORY        NOT AVBL
BOONE          NOT AVBL
ASHEVILLE      NOT AVBL

.....................REST OF SOUTH CAROLINA.....................

.........EASTERN SC.........

CITY           SKY/WX    TMP DP  RH WIND       PRES   REMARKS
CHARLESTON     PTCLDY    54  50  86 CALM      30.12F
BEAUFORT MCAS  PTCLDY    53  50  89 CALM      30.12F
HILTON HEAD    NOT AVBL

.........CENTRAL SC.........

CITY           SKY/WX    TMP DP  RH WIND       PRES   REMARKS
COLUMBIA       CLEAR     47  43  86 CALM      30.12S
ORANGEBURG     CLEAR     47  44  90 CALM      30.13S
SUMTER SHAW    CLEAR     46  45  96 CALM      30.12S

.........WESTERN SC.........

CITY           SKY/WX    TMP DP  RH WIND       PRES   REMARKS
GREENVILLE     NOT AVBL
ROCK HILL      PTCLDY    45  43  93 S5        30.13R
ANDERSON       CLEAR     47  45  93 CALM      30.11F
CLEMSON        NOT AVBL
GREENWOOD      CLEAR     44  42  93 CALM      30.12F


...................COASTAL AND OFFSHORE REPORTS..................

................LOCAL PIERS AND NC RESERVE................


STATION/POSITION TIME  SKY/WX   TEMP    WIND        PRES    VSBY
                                AIR SEA DIR/SP/G
                 (UTC)          (F)     (DEG/KT/KT) (MB)    (MI)
JOHNY MRCER PIER 0800            57 74  360/  6/  7 1020.1R
NC RESRV MASNBRO 0700            51        CALM     1020.0S
OCEAN CREST PIER 0800            53 72  360/  7/  8 1019.6S
SPRINGMAID  PIER 0800            56 71  330/  5/  6 1020.4F


................COASTAL AND OFFSHORE BUOYS................


STATION/POSITION TIME  SKY/WX   TEMP    WIND        PRES    VSBY
                                AIR SEA DIR/SP/G
                 (UTC)          (F)     (DEG/KT/KT) (MB)    (MI)
DIMNDSHOAL 41025 0800            61     350/  6/ 10 1020.3R
WVE H/P(F/S)=  4/12 WND WVE H/P(F/S)=  2/ 4 SWL H/P/D(F/S/D)=  3/ 60/12

CAPE LOOKOUT     0700            59     350/  7/  8 1020.3F
ONSLOW BAY 41036 0800            64 76  110/  8/ 10 1020.1R
WVE H/P(F/S)=  2/10 WND WVE H/P(F/S)=  2/ 3 SWL H/P/D(F/S/D)=  2/ 80/10

5 WRITEBCH 41038 0700            61 73   70/  8/  8   N/A
MASONBORO  41110 0800               74                N/A
WVE H/P(F/S)=  1/11 WND WVE H/P(F/S)=  2/10

WILM HARBR 41108 0800               73                N/A
WVE H/P(F/S)=  2/13 WND WVE H/P(F/S)=  2/ 8

27WRITEBCH 41037 0700            62 76  120/  8/ 10 1020.2S
FRYING PAN 41013 0800            66 75  100/  8/ 12 1021.0F
WVE H/P(F/S)=  2/11 WND WVE H/P(F/S)=  2/ 4 SWL H/P/D(F/S/D)=  2/120/11

SUNST NRSH 41024 0700            62      60/  4/  6 1020.1F
CAPRS NRSH 41029 0700            66     350/  8/ 10   N/A
EDISTO     41004 0800            69 80  100/  6/ 10 1019.3F
WVE H/P(F/S)=  2/11 WND WVE H/P(F/S)=  2/ 4 SWL H/P/D(F/S/D)=  2/11



..........OFFSHORE BUOYS BEYOND 100 NM OFFSHORE...........
.....IN A TRIANGLE---HAT TO BERMUDA TO BAHAMAS TO HAT.....


STATION/POSITION TIME  SKY/WX   TEMP    WIND        PRES    VSBY
                                AIR SEA DIR/SP/G
                 (UTC)          (F)     (DEG/KT/KT) (MB)    (MI)
150E HAT   41001 NOT AVBL
W BERMUDA  41048 0749            73 80  350/ 12/ 16 1016.4R
WVE H/P(F/S)=  8/ 8 WND WVE H/P(F/S)=  2/ 4 SWL H/P/D(F/S/D)=  8/310/ 8

ATLANTIC S 41049 0748            79 81  310/  6/  8 1014.2F
WVE H/P(F/S)=  5/11 SWL H/P/D(F/S/D)=  5/ 20/11

E BAHAMAS  41046 0723            80 83   10/ 10/ 14 1013.7F
WVE H/P(F/S)=  4/11 WND WVE H/P(F/S)=  2/ 5 SWL H/P/D(F/S/D)=  5/ 60/11

NE BAHAMAS 41047 0745            79 82  330/  6/  8 1015.7F
WVE H/P(F/S)=  4/ 9 WND WVE H/P(F/S)=  2/ 4 SWL H/P/D(F/S/D)=  5/ 70/ 9

120E CANVRL41010 0800            76 81   40/ 12/ 16 1016.8F
WVE H/P(F/S)=  5/ 7 WND WVE H/P(F/S)=  3/ 6 SWL H/P/D(F/S/D)=  3/360/ 7


END


USA.gov is the U.S. government's official web portal to all federal, state and local government web resources and services.